Chino, CA

9:08 AM PDT on April 28, 2017 (GMT -0700)
Chino

Weather History for KCNO - May, 2013

Change the Weather History Date:

Sunday, May 19, 2013

  Actual Average Record
Temperature  
Mean Temperature 68 °F -  
Max Temperature 81 °F 76 °F 98 °F (2008)
Min Temperature 54 °F 50 °F 33 °F (1997)
Cooling Degree Days 2    
Growing Degree Days 18 (Base 50)    
Moisture  
Dew Point 53 °F    
Average Humidity 66    
Maximum Humidity 90    
Minimum Humidity 31    
Precipitation  
Precipitation 0.00 in - - ()
Sea Level Pressure  
Sea Level Pressure 29.94 in    
Wind  
Wind Speed 4 mph (WSW)    
Max Wind Speed 18 mph    
Max Gust Speed 23 mph    
Visibility 8 miles    
Events      
Averages and records for this station are not official NWS values.
T = Trace of Precipitation, MM = Missing Value Source: NWS Daily Summary

Daily Weather History Graph

Daily Weather History Graph

Search for Another Location

Airport or City:

Trip Planner

Search our weather history database for the weather conditions in past years. The results will help you decide how hot, cold, wet, or windy it might be!

Date:

Astronomy

May. 19, 2013 Rise Set
Actual Time 5:46 AM PDT 7:48 PM PDT
Civil Twilight 5:18 AM PDT 8:16 PM PDT
Nautical Twilight 4:44 AM PDT 8:50 PM PDT
Astronomical Twilight 4:08 AM PDT 9:26 PM PDT
Moon 2:12 PM PDT (5/19) 1:55 AM PDT (5/19)
Length of Visible Light 14h 57m
Length of Day
14h 02m
Waxing Gibbous, 66% of the Moon is Illuminated
May 19
Waxing Gibbous
May 24
Full
May 31
Last Quarter
Jun 8
New
Jun 16
First Quarter

Hourly Weather History & Observations

Time (PDT) Temp. Dew Point Humidity Pressure Visibility Wind Dir Wind Speed Gust Speed Precip Events Conditions
12:53 AM 57.0 °F 52.0 °F 83% 29.99 in 8.0 mi Calm Calm - N/A   Clear
1:53 AM 55.9 °F 52.0 °F 87% 29.98 in 8.0 mi Calm Calm - N/A   Clear
3:53 AM 55.9 °F 51.1 °F 84% 29.99 in 8.0 mi Calm Calm - N/A   Clear
5:53 AM 54.0 °F 51.1 °F 90% 29.98 in 5.0 mi Calm Calm - N/A   Clear
6:53 AM 55.9 °F 53.1 °F 90% 29.99 in 10.0 mi Calm Calm - N/A   Clear
7:53 AM 59.0 °F 53.1 °F 81% 29.99 in 6.0 mi WSW 3.5 mph - N/A   Haze
8:10 AM 60.8 °F 53.6 °F 77% 30.00 in 6.0 mi Calm Calm - N/A   Haze
8:53 AM 63.0 °F 53.1 °F 70% 29.99 in 6.0 mi SSW 4.6 mph - N/A   Haze
9:00 AM 62.6 °F 53.6 °F 72% 30.00 in 6.0 mi SW 4.6 mph - N/A   Haze
9:53 AM 66.9 °F 54.0 °F 63% 29.97 in 10.0 mi SSW 4.6 mph - N/A   Partly Cloudy
10:53 AM 70.0 °F 54.0 °F 57% 29.95 in 10.0 mi Variable 3.5 mph - N/A   Clear
1:53 PM 81.0 °F 48.0 °F 31% 29.90 in 10.0 mi West 12.7 mph 21.9 mph N/A   Clear
2:53 PM 81.0 °F 51.1 °F 35% 29.88 in 10.0 mi West 17.3 mph 23.0 mph N/A   Clear
3:53 PM 79.0 °F 51.1 °F 38% 29.87 in 10.0 mi WSW 18.4 mph - N/A   Clear
4:53 PM 77.0 °F 52.0 °F 42% 29.87 in 10.0 mi WSW 17.3 mph - N/A   Clear
5:53 PM 75.0 °F 54.0 °F 48% 29.87 in 10.0 mi WSW 13.8 mph - N/A   Clear
6:53 PM 71.1 °F 55.0 °F 57% 29.88 in 10.0 mi West 12.7 mph - N/A   Clear
7:53 PM 68.0 °F 54.0 °F 61% 29.89 in 10.0 mi West 9.2 mph - N/A   Clear
9:53 PM 64.9 °F 54.0 °F 68% 29.92 in 8.0 mi West 3.5 mph - N/A   Clear
10:53 PM 63.0 °F 54.0 °F 72% 29.93 in 8.0 mi Calm Calm - N/A   Clear
11:53 PM 61.0 °F 53.1 °F 75% 29.92 in 8.0 mi Calm Calm - N/A   Clear